[[{"header":{"parameterUnit":"m.s-1","parameterCategory":1,"la1":30.2991,"la2":30.254,"lo1":-89.0895,"lo2":-89.0444,"dy":0.0017,"dx":0.0017,"nx":28,"ny":28,"refTime":"2025-06-08T21:00:00:Z","depth":0,"parameterNumber":2,"parameterNumberName":"U-component_of_WINDS"},"data":[0,0,0,0,0,0,0,0,0,0,0,0,0,0,0,0,0,0,0,0,0,0,0,0,0,0,0,0,0,0,0,0,0,0,0,0,0,0,0,0,0,0,0,0,0,0,0,0,0,0,0,0,0,0,0,0,0,0,3.3556,3.3558,0,3.3778,3.378,3.3783,3.3748,3.3744,3.374,3.3737,3.3974,3.3983,3.3993,0,0,0,0,0,0,0,0,0,0,0,0,0,3.3109,3.3118,3.3555,3.3558,3.3561,3.3777,3.378,3.3784,3.3749,3.3744,3.3739,3.3735,3.397,3.3982,3.3994,0,0,0,0,0,0,0,0,0,0,0,0,0,3.3315,3.312,3.3555,3.3569,3.3573,3.3777,3.3781,3.3784,3.375,3.3744,3.3738,3.3733,3.3967,3.3981,3.3996,3.4202,0,0,3.4041,3.4047,0,0,0,0,0,0,0,0,3.3303,3.3331,3.3565,3.3569,3.3573,3.3729,3.371,3.3925,3.3751,3.3683,3.3737,3.373,3.3898,3.3918,3.3972,3.4213,3.4223,3.4042,3.4051,3.4057,3.4062,0,0,0,0,0,0,0,3.3289,3.3321,3.3644,3.3568,3.3573,3.3568,3.359,3.3751,3.382,3.3688,3.3686,3.3713,3.3899,3.3958,3.3978,3.4227,3.4042,3.4055,3.4064,3.407,3.4649,3.4655,0,0,0,0,0,0,3.3269,3.331,3.3637,3.365,3.3421,3.358,3.3606,3.3685,3.3818,3.3833,3.3717,3.371,3.3936,3.396,3.3986,3.4236,3.4057,3.4071,3.408,3.4642,3.465,3.4657,0,0,0,0,0,0,3.326,3.3299,3.3628,3.348,3.3521,3.3594,3.3683,3.3692,3.3751,3.384,3.3853,3.3764,3.3932,3.3965,3.4148,3.4244,3.4078,3.4091,3.4634,3.4645,3.4653,3.4739,0,0,0,0,0,0,3.3247,3.3295,3.3373,3.3481,3.3529,3.3784,3.3689,3.3701,3.3776,3.3769,3.3888,3.3902,3.393,3.4126,3.4163,3.4262,3.4103,3.4626,3.4639,3.465,3.4728,3.475,3.477,0,0,0,0,0,3.3231,3.339,3.3377,3.3416,3.3626,3.3789,3.3817,3.3843,3.3784,3.3863,3.392,3.3898,3.4227,3.4145,3.4186,3.4291,3.462,3.4635,3.4649,3.4719,3.4746,3.4769,0,0,0,0,0,0,3.3294,3.3404,3.3391,3.3589,3.3679,3.3783,3.3884,3.3871,3.3983,3.3972,3.4003,3.4031,3.4216,3.4272,3.4178,3.4498,3.4416,3.444,3.4455,3.4481,3.4502,3.4485,3.4115,0,0,0,0,0,3.333,3.345,3.3541,3.3707,3.3753,3.3811,3.3883,3.3895,3.3991,3.4031,3.4101,3.4198,3.4323,3.4405,3.4525,3.4735,3.4762,3.4828,3.4849,3.4865,3.4886,3.5002,3.5033,3.4705,3.4705,3.4705,0,0,3.3407,3.3482,3.3557,3.3722,3.3793,3.392,3.3843,3.398,3.4075,3.4053,3.4228,3.4284,3.4394,3.4591,3.4682,3.4644,3.4982,3.4884,3.4897,3.4908,3.502,3.5051,3.5079,3.4715,3.4713,3.4711,0,0,3.3612,3.368,3.3826,3.3899,3.4007,3.4044,3.4079,3.4185,3.422,3.4396,3.4382,3.4497,3.4711,3.4791,3.4859,3.5094,3.5078,3.5132,3.5242,3.5355,3.5381,3.5404,3.5488,3.5518,3.5152,3.5153,3.5153,0,3.3695,3.3882,3.3903,3.4042,3.4115,3.4097,3.4246,3.4317,3.4461,3.4513,3.4467,3.4736,3.481,3.5025,3.5082,3.5138,3.5181,3.5119,3.5375,3.5398,3.542,3.5501,3.5533,3.5158,3.5158,3.5157,3.5157,0,3.3979,3.4109,3.4214,3.435,3.4435,3.4579,3.4624,3.4709,3.4714,3.4757,3.4938,3.5025,3.5162,3.5214,3.5222,3.5432,3.5405,3.5367,3.5285,3.5457,3.5534,3.5565,3.5167,3.5165,3.5163,3.5162,0,0,3.4231,3.4375,3.4413,3.4475,3.4593,3.4695,3.4839,3.497,3.5042,3.5142,3.5265,3.5446,3.5411,3.5489,3.5506,3.5605,3.5786,3.5555,3.5558,3.5595,3.6024,3.6052,3.6088,3.5775,3.5781,3.5786,3.6015,0,3.4447,3.4697,3.472,3.4945,3.5067,3.5051,3.5176,3.5264,3.5308,3.542,3.5469,3.5598,3.5541,3.5588,3.5685,3.5743,3.5873,3.5727,3.5892,3.5898,3.5865,3.6128,3.6158,3.637,3.6045,3.605,3.6054,0,3.4734,3.4838,3.5075,3.5175,3.5227,3.5339,3.5461,3.5567,3.5667,3.5692,3.5779,3.5782,3.5932,3.5844,3.6052,3.5953,3.6022,3.606,3.6069,3.6087,3.5987,3.6153,3.6438,3.647,3.6101,3.6097,3.6094,0,3.4894,3.5095,3.5262,3.5315,3.5437,3.5516,3.5571,3.5664,3.5742,3.585,3.5901,3.6026,3.6095,3.6194,3.6231,3.6163,3.6439,3.6353,3.6466,3.6465,3.6525,3.6521,3.6826,3.6568,3.6568,3.6567,3.6567,0,3.5134,3.528,3.5335,3.5438,3.5602,3.5628,3.579,3.5842,3.5925,3.604,3.6035,3.6144,3.6186,3.6302,3.6333,3.6502,3.6533,3.6559,3.6566,3.656,3.6557,3.6607,3.6593,3.6576,3.6574,3.6572,3.6571,0,3.5341,3.5384,3.5565,3.5665,3.5694,3.581,3.5896,3.5997,3.6039,3.6184,3.622,3.6287,3.6424,3.647,3.6637,3.6657,3.6853,3.6847,3.6819,3.682,3.693,3.6919,3.7278,3.7327,3.7037,3.704,3.7042,0,3.5492,3.5603,3.5714,3.5788,3.5845,3.5967,3.6045,3.6076,3.6159,3.628,3.6367,3.6501,3.6611,3.683,3.6895,3.7022,3.702,3.7137,3.7039,3.703,3.7023,3.7016,3.7027,3.7155,3.7158,3.7161,3.7163,0,3.5755,3.577,3.5881,3.6001,3.6094,3.619,3.6283,3.6346,3.6391,3.6485,3.6622,3.6707,3.6875,3.7009,3.7139,3.7199,3.719,3.7193,3.7226,3.7221,3.72,3.7214,3.6869,3.7185,3.7182,3.7181,3.718,3.7179,3.5939,3.6037,3.613,3.6254,3.6327,3.6414,3.6513,3.6567,3.6681,3.6818,3.6831,3.6979,3.7078,3.725,3.7316,3.7435,3.7402,3.745,3.7462,3.7473,3.7482,3.718,3.7459,3.7458,3.7457,3.7457,3.7457,0,3.6202,3.626,3.6375,3.6504,3.6602,3.6582,3.6684,3.6769,3.6898,3.6989,3.7096,3.7255,3.7385,3.746,3.759,3.7671,3.767,3.7704,3.7699,3.7713,3.7503,3.7462,3.7703,3.7703,3.7703,3.7703,3.7703,3.7703,3.635,3.6515,3.6542,3.6743,3.6802,3.6945,3.7005,3.7086,3.7159,3.7335,3.7442,3.7489,3.7574,3.7711,3.783,3.7849,3.7898,3.7935,3.7951,3.7754,3.7728,3.7704,3.7665,3.7945,3.7946,3.8152,3.8153,3.8155]},{"header":{"parameterUnit":"m.s-1","parameterCategory":1,"la1":30.2991,"la2":30.254,"lo1":-89.0895,"lo2":-89.0444,"dy":0.0017,"dx":0.0017,"nx":28,"ny":28,"refTime":"2025-06-08T21:00:00:Z","depth":0,"parameterNumber":3,"parameterNumberName":"V-component_of_WINDS"},"data":[0,0,0,0,0,0,0,0,0,0,0,0,0,0,0,0,0,0,0,0,0,0,0,0,0,0,0,0,0,0,0,0,0,0,0,0,0,0,0,0,0,0,0,0,0,0,0,0,0,0,0,0,0,0,0,0,0,0,6.5033,6.5036,0,6.525,6.5253,6.5255,6.5281,6.5279,6.5277,6.5275,6.5485,6.5492,6.55,0,0,0,0,0,0,0,0,0,0,0,0,0,6.4628,6.4636,6.5033,6.5036,6.5038,6.525,6.5253,6.5256,6.5281,6.5279,6.5276,6.5274,6.5483,6.5492,6.5501,0,0,0,0,0,0,0,0,0,0,0,0,0,6.482,6.4638,6.5032,6.5077,6.5083,6.5249,6.5253,6.5257,6.5282,6.5279,6.5275,6.5273,6.548,6.5491,6.5502,6.5635,0,0,6.5537,6.5541,0,0,0,0,0,0,0,0,6.4809,6.4835,6.5068,6.5074,6.5081,6.5236,6.5187,6.5383,6.5283,6.5206,6.5275,6.5271,6.5404,6.5421,6.5468,6.5645,6.5654,6.5538,6.5544,6.5549,6.5552,0,0,0,0,0,0,0,6.4796,6.4826,6.5119,6.5071,6.5079,6.5082,6.5106,6.5225,6.5319,6.5212,6.5215,6.5241,6.5407,6.5457,6.5474,6.5657,6.5537,6.5547,6.5554,6.5559,6.5951,6.5954,0,0,0,0,0,0,6.4776,6.4815,6.5112,6.5125,6.4935,6.5092,6.5119,6.5189,6.5318,6.5335,6.5243,6.5241,6.544,6.546,6.5481,6.5644,6.5549,6.556,6.5566,6.5947,6.5952,6.5955,0,0,0,0,0,0,6.4767,6.4803,6.5103,6.4971,6.5009,6.5102,6.5181,6.5195,6.5246,6.5342,6.5358,6.5279,6.5438,6.5465,6.5597,6.5652,6.5565,6.5575,6.5943,6.5949,6.5954,6.5972,0,0,0,0,0,0,6.4756,6.4799,6.4854,6.4972,6.5016,6.5219,6.5185,6.5201,6.5267,6.5266,6.5379,6.5395,6.5438,6.558,6.5608,6.5666,6.5584,6.5938,6.5945,6.5952,6.5967,6.5977,6.5986,0,0,0,0,0,6.4741,6.4848,6.4856,6.4892,6.5087,6.5222,6.5247,6.5298,6.5271,6.5325,6.5386,6.5391,6.5642,6.5593,6.5625,6.5687,6.5935,6.5943,6.5951,6.5962,6.5975,6.5986,0,0,0,0,0,0,6.473,6.4864,6.4875,6.5024,6.5112,6.5226,6.5296,6.531,6.5404,6.5399,6.5454,6.5479,6.5608,6.5661,6.5605,6.5821,6.5785,6.58,6.5783,6.5796,6.5805,6.5789,6.5594,0,0,0,0,0,6.4745,6.4848,6.4958,6.5079,6.5123,6.5202,6.5262,6.5294,6.5386,6.5422,6.5493,6.5578,6.5676,6.5739,6.5834,6.5975,6.5998,6.6033,6.6043,6.605,6.6062,6.6138,6.6154,6.5982,6.5982,6.5982,0,0,6.4777,6.4863,6.4924,6.5079,6.5151,6.5252,6.5233,6.534,6.5415,6.5437,6.5567,6.5621,6.572,6.5856,6.592,6.5904,6.6114,6.6061,6.6066,6.6074,6.6148,6.6164,6.6178,6.5988,6.5987,6.5986,0,0,6.4886,6.4963,6.5072,6.5145,6.5255,6.5307,6.5333,6.5446,6.5484,6.5616,6.5634,6.5721,6.5889,6.5958,6.6015,6.615,6.6157,6.6179,6.6229,6.6303,6.6316,6.6328,6.6374,6.639,6.6191,6.6191,6.6191,0,6.4911,6.5068,6.5125,6.5233,6.5299,6.5328,6.5435,6.5502,6.5636,6.5679,6.566,6.5872,6.594,6.6092,6.6125,6.6171,6.6199,6.6166,6.631,6.6323,6.6335,6.6379,6.6397,6.6193,6.6192,6.6192,6.6192,0,6.5091,6.5199,6.5273,6.5406,6.548,6.5587,6.5657,6.5724,6.5749,6.5802,6.5933,6.6017,6.6129,6.6167,6.6191,6.6322,6.6309,6.63,6.6264,6.6353,6.6395,6.6412,6.6195,6.6195,6.6194,6.6193,0,0,6.5198,6.5363,6.5388,6.5448,6.5572,6.5655,6.5761,6.5875,6.5931,6.6022,6.611,6.6252,6.6244,6.6309,6.6341,6.6405,6.6504,6.6388,6.6391,6.6405,6.665,6.6655,6.6674,6.651,6.6514,6.6517,6.6641,0,6.532,6.5517,6.557,6.5734,6.5833,6.5862,6.5954,6.6038,6.6089,6.6177,6.6232,6.6331,6.6315,6.6354,6.6419,6.6478,6.6554,6.647,6.6589,6.6593,6.6562,6.6697,6.6703,6.6817,6.6659,6.6661,6.6664,0,6.5489,6.5587,6.5762,6.5873,6.5916,6.5999,6.6107,6.6192,6.6286,6.6318,6.6391,6.6417,6.6525,6.6485,6.6632,6.6574,6.6626,6.6662,6.6667,6.6679,6.6632,6.671,6.6855,6.6871,6.6691,6.6688,6.6686,0,6.5547,6.5723,6.585,6.5901,6.6033,6.6091,6.6147,6.6239,6.6303,6.6396,6.6438,6.654,6.6595,6.6672,6.6723,6.669,6.6865,6.683,6.6892,6.6891,6.6926,6.6923,6.7079,6.6963,6.6962,6.6962,6.6962,0,6.5676,6.5781,6.5878,6.5956,6.6074,6.6133,6.6246,6.6304,6.6385,6.6471,6.6501,6.658,6.6644,6.6731,6.6772,6.6886,6.6911,6.6937,6.6946,6.6934,6.693,6.6967,6.696,6.6967,6.6966,6.6965,6.6964,0,6.576,6.583,6.597,6.6085,6.6116,6.6198,6.6294,6.6368,6.6421,6.653,6.6559,6.664,6.6744,6.6804,6.6933,6.696,6.7087,6.7093,6.7057,6.706,6.7118,6.7111,6.7302,6.7329,6.7196,6.7197,6.7198,0,6.5837,6.592,6.6044,6.6107,6.6166,6.6265,6.6332,6.6393,6.646,6.6573,6.6633,6.674,6.6829,6.6992,6.706,6.7159,6.7166,6.7227,6.7181,6.7165,6.7165,6.7159,6.7166,6.7233,6.7234,6.7235,6.7236,0,6.5966,6.5997,6.6094,6.6204,6.6284,6.6372,6.6459,6.6507,6.6581,6.6655,6.6764,6.6833,6.6968,6.7072,6.7176,6.723,6.7244,6.7251,6.727,6.7257,6.7232,6.7244,6.7076,6.7245,6.7244,6.7244,6.7243,6.7243,6.6048,6.6122,6.6222,6.6329,6.6401,6.6482,6.6558,6.6622,6.6715,6.6832,6.6861,6.6975,6.7064,6.7207,6.7264,6.735,6.7339,6.7367,6.7374,6.738,6.7381,6.722,6.7369,6.7369,6.7369,6.7369,6.7369,0,6.6176,6.6242,6.6341,6.6464,6.6547,6.6559,6.6655,6.6723,6.6824,6.6909,6.6996,6.712,6.7221,6.7298,6.74,6.7455,6.7464,6.7479,6.7475,6.7486,6.7386,6.7358,6.7471,6.747,6.747,6.747,6.747,6.747,6.6252,6.6378,6.642,6.6581,6.6645,6.6761,6.6815,6.6888,6.6956,6.7094,6.718,6.7231,6.7311,6.742,6.7512,6.7532,6.7566,6.7581,6.7601,6.7505,6.7494,6.7483,6.7458,6.7589,6.7589,6.7694,6.7695,6.7696]}]]